Theta_e
325 330 334 342 344 346 347 347 347 346 347 346 347 347 346 345 345 345 346 346 345 343 342 343 343 343 346 346 346 346 344 343 342 339 341 344 344 345 345 345 345 344 344 345 345 344 342 339 337 333 331 325
321 325 329 334 342 345 346 346 346 346 346 346 346 345 344 345 345 345 345 345 344 342 341 341 341 342 344 345 345 345 345 345 343 341 341 342 343 345 345 345 344 344 344 344 344 341 339 336 334 332 327 323
315 322 324 328 335 341 342 344 343 342 343 344 343 343 343 344 344 344 344 344 343 342 341 341 340 339 339 344 344 344 345 345 344 344 341 340 343 344 345 345 344 344 344 342 341 339 336 334 331 326 325 324
312 319 322 324 327 339 338 341 340 339 339 340 340 339 340 342 342 343 342 343 342 341 340 340 338 338 337 340 343 343 343 344 345 344 342 341 340 342 343 345 344 343 342 340 339 336 333 329 325 324 326 326
310 316 319 321 323 330 336 337 338 336 335 336 335 335 336 339 339 337 338 340 338 340 338 336 335 336 335 337 340 342 342 341 343 344 343 342 342 342 341 343 343 341 340 339 336 332 328 327 325 324 325 326
307 313 316 319 321 326 329 336 337 337 337 342 335 332 335 335 336 336 334 334 341 336 337 334 333 334 334 336 338 341 341 340 342 343 344 343 342 342 340 340 340 339 338 337 333 329 327 327 326 323 324 325
305 310 312 317 320 324 327 331 340 338 338 337 336 333 334 335 333 333 333 333 335 337 332 335 332 332 333 334 337 340 340 340 340 342 342 343 343 342 339 338 337 335 335 334 332 328 327 329 327 325 325 324
303 308 310 315 319 321 322 325 335 338 337 337 336 335 333 333 333 332 332 337 340 341 337 333 330 330 330 332 334 336 338 338 338 338 340 341 341 339 337 338 337 335 334 334 331 329 329 329 327 325 324 324
301 306 309 313 316 318 318 320 324 325 324 329 335 336 334 334 332 332 330 330 331 334 333 332 331 330 329 330 330 333 334 336 338 337 337 337 338 337 338 337 336 335 333 333 331 331 331 330 328 327 325 324
300 303 307 311 312 314 316 316 318 319 321 322 322 325 333 333 332 331 330 330 331 331 331 331 331 330 329 329 331 334 335 335 337 338 337 336 335 336 337 337 335 335 334 333 332 330 330 330 328 327 326 324
297 301 305 309 310 311 312 314 314 314 316 317 318 320 318 322 332 331 331 330 330 331 331 330 330 330 329 330 331 334 335 335 335 336 336 336 334 335 336 336 335 334 334 334 333 331 330 329 329 328 326 325
296 298 304 306 307 308 310 310 310 311 312 313 314 315 314 317 317 327 331 331 331 330 330 330 330 329 329 329 330 332 335 334 334 335 336 335 333 333 335 334 335 334 334 334 334 332 331 330 329 328 327 326
294 296 303 304 304 305 307 307 307 308 309 309 311 311 312 313 314 316 318 330 330 330 330 331 330 329 329 329 329 329 332 334 333 333 334 335 334 332 332 333 334 334 334 334 334 332 331 330 329 328 327 327
292 295 299 302 302 303 304 304 305 306 305 307 307 307 308 310 312 314 314 316 328 331 330 330 330 329 329 328 329 330 331 333 334 334 334 334 334 333 332 332 334 334 333 333 333 332 331 330 329 328 327 327
290 294 297 301 300 300 301 302 303 302 303 304 304 305 305 307 308 311 311 315 315 325 331 330 330 330 330 329 330 331 332 333 333 334 334 333 334 333 333 332 334 333 333 332 331 331 330 330 329 328 328 327
289 292 295 299 298 297 298 300 299 299 300 301 301 302 302 303 305 307 308 310 313 318 326 330 330 331 331 331 331 332 332 332 333 333 333 333 333 333 333 333 334 334 332 332 331 331 330 330 328 328 328 328
288 290 294 296 296 295 296 297 297 296 296 298 298 299 300 301 303 303 304 307 311 317 322 330 330 330 331 332 332 332 332 332 332 332 332 331 331 331 331 331 332 333 333 332 331 331 331 330 329 329 328 328
287 289 292 296 294 294 293 293 295 294 294 295 296 297 297 298 301 301 301 305 308 315 316 324 331 331 331 332 332 332 332 331 332 331 331 331 330 328 329 329 329 330 331 332 332 331 331 330 330 330 329 329
286 288 289 295 293 293 292 291 291 292 293 293 293 294 295 295 298 299 299 303 304 310 313 315 316 319 322 326 330 332 332 331 331 331 330 330 329 329 328 329 328 329 330 330 330 331 331 330 330 330 329 329
285 286 288 292 294 290 290 288 289 290 289 290 291 292 292 292 295 296 296 299 303 304 308 311 312 315 318 321 325 327 329 330 330 330 330 330 329 327 327 328 328 329 329 330 330 331 331 330 329 329 329 329
283 285 287 290 291 289 288 287 286 287 287 288 288 289 290 290 292 293 293 295 300 302 304 307 309 311 315 317 317 317 316 315 316 318 326 329 329 329 326 327 327 328 328 328 329 329 329 329 329 328 328 328
282 284 286 288 288 288 286 285 285 285 285 285 285 286 287 288 290 291 291 292 296 299 302 304 305 307 310 314 314 314 314 313 315 316 316 319 326 328 327 326 327 327 328 328 327 328 328 328 328 328 328 327
281 283 284 286 286 286 285 284 283 283 283 283 283 283 285 286 288 288 289 291 293 296 298 300 302 304 305 309 311 311 311 311 312 312 314 315 316 321 324 325 326 327 327 327 326 326 327 326 326 327 327 326
279 280 281 282 283 283 282 283 282 281 282 282 281 282 283 284 285 285 287 287 290 293 294 297 299 300 302 304 307 307 307 308 309 309 311 312 314 315 317 316 317 320 320 320 321 320 322 323 323 323 323 324
276 277 278 280 281 281 281 281 281 280 280 281 280 281 281 282 283 283 283 285 287 290 292 292 295 297 299 301 304 305 305 307 307 309 310 311 313 313 313 313 315 316 318 319 318 319 319 320 321 321 321 322
275 276 277 278 279 280 280 279 279 278 279 280 280 279 280 280 281 282 282 283 284 288 288 289 291 294 295 297 299 302 304 304 306 306 307 309 309 312 313 313 314 315 315 314 312 312 315 317 318 318 318 318
273 275 276 278 278 279 279 279 279 279 279 279 278 278 279 279 279 280 280 281 282 285 286 286 288 290 292 294 297 297 299 300 301 303 305 307 308 308 311 312 315 314 315 309 312 314 314 312 311 312 313 314
274 274 275 277 277 278 277 276 278 278 277 277 278 276 277 278 278 278 279 279 280 282 284 284 285 288 289 291 294 295 295 297 298 300 302 305 307 307 305 308 310 313 313 313 309 305 306 306 309 308 307 308
273 273 272 274 275 276 276 276 275 275 275 275 277 276 276 276 277 277 278 278 278 280 282 283 283 285 287 289 292 293 292 293 295 298 301 303 305 305 305 305 308 310 311 312 314 308 305 305 304 304 306 307
272 271 271 271 271 270 271 271 271 270 271 272 273 273 275 276 276 276 277 277 277 277 281 281 282 283 285 286 289 290 290 291 293 295 298 301 303 303 305 305 305 305 309 310 312 312 311 309 304 303 306 305
272 270 270 270 270 270 270 269 270 271 272 272 274 273 273 274 275 275 275 276 276 276 278 279 280 281 282 284 287 288 287 288 290 293 296 299 300 301 303 304 302 304 304 308 310 309 311 311 310 310 307 302
Wind_Speed
22 23 23 16 11 9 9 8 8 9 9 10 11 10 10 10 11 11 9 9 7 6 6 5 3 3 5 8 9 9 10 13 13 12 13 10 14 15 15 15 15 14 15 14 12 10 10 11 10 8 6 3
22 23 24 20 10 8 6 7 7 7 8 9 9 9 9 9 10 10 9 9 8 8 7 6 4 2 3 7 8 9 10 12 13 16 13 9 14 14 15 15 15 14 14 12 11 9 10 10 10 8 5 4
15 21 24 23 18 11 7 7 6 7 7 7 8 8 8 8 9 9 9 9 9 8 8 8 7 5 3 4 7 8 11 13 14 15 13 13 9 14 15 15 14 12 12 10 8 9 10 10 9 8 4 3
13 17 24 22 25 12 8 5 5 5 6 6 7 7 7 7 6 7 7 9 7 9 9 9 7 7 5 4 4 8 10 11 12 14 14 17 10 11 14 13 14 12 10 9 9 10 10 8 8 6 4 4
12 14 22 17 19 20 6 3 1 2 4 5 5 5 6 6 5 4 4 5 5 7 6 8 9 9 7 6 5 7 9 9 9 12 14 13 14 10 10 12 13 13 11 11 10 10 8 8 5 4 5 4
10 11 15 11 10 9 15 5 1 1 1 5 3 4 4 4 3 4 3 4 7 5 5 6 8 9 8 8 7 8 9 11 10 12 15 13 13 15 10 10 7 8 9 10 10 9 10 7 4 3 4 4
10 13 11 12 10 12 14 14 4 2 2 2 3 3 3 3 3 3 3 4 5 6 7 7 9 9 9 8 8 8 9 9 9 11 14 14 13 13 15 9 5 6 6 6 10 8 7 5 5 4 4 4
10 12 12 11 12 11 12 13 8 3 2 3 3 4 3 3 3 3 3 6 10 10 5 6 8 9 9 8 8 9 6 7 7 9 10 13 12 10 7 5 5 5 5 6 5 5 6 5 5 5 5 5
10 13 10 10 12 12 11 13 12 11 13 12 8 5 3 5 4 4 3 3 3 5 4 4 5 5 4 4 4 6 4 4 5 5 5 5 7 5 7 6 7 6 6 5 6 6 6 5 5 5 5 5
11 13 12 12 12 11 11 11 11 11 10 10 11 13 8 6 5 5 4 4 5 5 4 5 6 6 5 5 5 4 4 4 4 5 5 5 5 6 5 7 6 6 7 6 6 5 5 5 5 5 5 5
9 9 8 10 11 12 11 10 10 11 11 10 12 11 11 11 6 5 5 6 6 6 5 6 6 6 5 6 5 5 5 5 4 4 5 5 5 4 5 6 8 6 6 6 7 6 6 6 6 6 5 5
9 10 8 12 12 11 11 11 11 11 10 12 11 11 12 9 10 9 6 6 6 7 5 7 6 5 5 5 6 5 5 6 5 4 4 5 4 5 6 6 6 8 6 6 6 7 7 7 7 6 6 6
10 9 9 11 11 11 13 10 10 11 10 11 10 12 11 11 10 9 12 8 7 5 7 7 5 5 6 5 5 5 6 6 6 5 5 5 5 5 5 4 7 6 7 7 6 6 7 7 7 7 7 7
11 10 9 11 11 11 11 11 10 11 11 10 11 12 13 11 8 9 8 11 10 7 8 7 7 6 6 6 5 5 6 6 6 6 5 5 6 6 6 6 5 5 6 7 7 6 7 7 8 7 7 7
12 11 9 12 10 10 11 11 10 11 11 10 11 10 13 12 11 9 9 8 11 10 8 8 8 8 6 6 6 6 6 5 6 6 6 6 6 6 6 6 6 6 7 7 7 7 7 8 6 6 6 6
11 11 10 12 11 11 12 12 11 11 10 11 11 12 13 12 13 11 9 11 11 9 9 9 8 7 7 8 6 6 6 5 5 6 6 7 7 8 7 6 6 7 7 7 7 7 8 8 7 7 7 7
10 9 9 12 11 11 12 10 11 11 11 11 11 12 13 13 13 12 10 11 11 11 10 7 8 7 7 6 5 5 6 6 5 6 7 8 7 7 7 8 8 7 7 8 8 8 8 7 9 8 7 7
9 10 8 10 10 11 10 10 9 11 11 12 12 11 12 13 13 13 12 11 13 11 11 11 5 5 6 5 5 5 5 6 6 7 8 8 7 7 8 8 8 8 8 7 7 8 8 8 8 7 7 8
11 11 8 9 10 10 10 9 9 9 8 10 12 10 9 13 13 13 13 11 11 11 12 11 12 11 7 4 2 6 6 6 7 8 9 8 9 8 8 9 9 9 9 9 8 8 8 8 7 6 7 7
11 10 9 9 10 9 11 10 10 10 11 9 10 10 10 14 14 13 14 13 13 12 13 12 11 10 9 8 7 6 4 5 6 9 9 8 9 8 9 9 10 8 9 9 9 7 7 7 8 7 7 7
13 11 10 10 9 11 10 10 11 11 11 10 12 12 10 13 14 14 14 14 13 13 13 13 12 11 12 9 9 8 8 9 9 10 8 8 9 9 8 9 10 9 9 9 9 8 8 7 8 8 7 8
11 10 11 10 9 12 11 12 11 10 11 12 12 12 13 15 13 14 16 15 13 13 12 12 12 12 13 9 9 9 10 10 9 9 10 11 6 8 8 8 8 9 9 9 10 9 9 8 7 7 7 7
11 10 9 9 11 11 12 11 11 11 12 12 12 13 14 15 13 15 14 14 13 13 13 11 12 11 13 11 10 10 11 11 11 10 10 9 12 8 2 4 7 9 9 10 8 8 9 7 8 7 7 6
10 9 10 11 11 11 13 12 12 12 12 12 12 14 14 14 14 15 15 15 12 13 13 11 11 12 14 13 12 12 13 12 11 12 12 11 11 12 8 7 7 6 5 3 5 6 5 6 5 5 5 6
13 12 11 10 12 11 11 11 11 12 12 12 12 14 14 15 13 15 16 16 13 13 12 11 12 14 14 14 12 12 12 11 12 11 10 9 8 9 9 9 9 10 6 4 4 4 6 6 5 6 6 7
11 11 10 9 9 9 9 10 11 13 13 13 12 14 14 14 14 16 14 15 15 12 14 12 13 13 12 13 13 11 11 12 12 13 12 10 9 7 7 7 10 10 9 4 4 2 2 4 5 8 7 7
11 11 11 9 9 8 7 8 8 8 11 11 13 13 14 14 15 14 14 16 15 12 13 13 11 10 12 13 13 13 13 13 14 12 12 12 9 8 7 5 6 10 9 7 7 4 1 0 0 1 1 1
10 12 11 9 8 8 8 8 8 8 9 11 14 16 14 14 15 15 14 16 15 12 13 14 13 11 13 11 12 11 12 13 13 13 12 12 11 9 8 8 7 7 9 7 10 6 4 3 1 1 3 6
11 10 8 5 4 4 5 6 9 9 12 13 12 12 14 15 16 15 14 14 15 15 13 13 13 13 12 10 11 12 12 12 11 12 10 12 11 11 9 8 5 7 9 8 8 6 5 4 3 3 4 5
11 12 12 12 14 15 14 14 15 16 14 14 14 14 12 13 14 15 14 15 15 16 14 15 14 14 14 14 12 12 10 10 10 12 11 11 9 11 11 7 6 7 8 7 7 8 4 4 4 6 6 3
10 13 13 13 9 9 9 10 8 9 9 10 10 10 12 11 12 14 15 15 15 15 14 14 13 14 13 13 11 12 11 12 11 10 10 11 11 10 9 9 8 8 8 6 6 9 7 5 3 5 5 3
Wind_Direction
350 355 346 292 243 211 205 214 219 215 213 209 209 204 202 204 204 207 203 202 198 189 188 197 202 224 196 208 211 209 206 203 193 231 241 221 199 178 174 177 181 183 192 191 186 171 165 165 164 169 166 163
351 350 347 332 280 229 205 221 218 215 212 201 198 203 202 203 207 207 204 207 198 189 189 189 188 201 228 213 210 209 200 204 202 201 228 275 215 187 176 177 184 184 192 191 187 161 161 163 167 164 153 160
341 350 349 346 325 259 221 215 220 222 219 203 197 201 203 207 211 214 211 210 205 195 193 190 187 183 204 237 227 223 209 200 204 200 197 247 237 206 179 176 182 186 188 193 172 158 161 165 158 148 145 163
338 349 350 347 351 273 234 204 221 228 233 226 203 201 204 209 214 219 221 220 213 206 201 197 187 188 184 214 230 224 230 209 206 203 190 206 231 231 198 185 176 184 185 182 164 160 161 158 149 141 143 178
342 350 353 348 351 336 263 228 197 254 254 260 242 215 214 213 211 219 222 227 217 219 214 209 197 191 189 198 205 205 217 236 218 212 207 194 202 231 226 206 183 180 183 173 165 159 156 156 154 155 150 154
335 347 349 343 336 341 355 321 350 255 267 243 246 241 227 214 209 212 219 225 224 216 217 219 214 203 196 197 199 197 209 212 217 219 214 200 204 209 230 234 204 181 182 172 161 160 158 161 185 185 159 160
340 352 346 346 340 1 2 341 258 300 277 272 260 261 241 224 221 207 214 222 225 220 219 216 212 214 210 206 202 201 206 209 209 221 221 213 208 202 209 228 208 180 175 170 165 156 160 174 181 181 200 194
342 357 350 350 356 2 3 354 340 344 303 272 276 262 253 263 239 224 214 229 233 229 227 229 223 217 217 222 219 207 206 210 210 220 234 228 212 203 207 220 211 183 173 172 149 166 158 174 183 193 196 200
346 351 350 0 1 1 8 3 350 22 16 354 319 266 247 240 229 228 223 220 223 230 225 227 226 215 211 210 224 221 205 198 210 212 215 227 224 211 212 210 210 183 177 175 172 183 186 181 190 206 209 210
343 355 347 5 4 1 8 11 350 14 14 4 2 351 308 238 229 230 222 221 221 225 215 223 223 218 202 197 208 204 216 203 197 199 208 213 209 217 216 212 199 206 182 180 179 181 187 187 185 209 213 220
345 348 343 7 6 6 5 7 358 9 9 9 0 351 3 349 297 233 226 222 221 225 211 223 221 220 205 201 202 195 198 207 206 206 211 207 211 209 213 218 206 198 200 184 183 188 194 191 193 206 217 224
350 345 343 11 8 10 8 7 9 2 10 4 358 358 358 352 356 329 263 230 226 224 216 225 218 220 217 209 207 194 197 202 202 212 212 211 213 216 218 223 214 200 205 198 191 191 198 202 207 206 218 222
348 346 354 15 13 10 9 11 10 359 10 11 358 0 354 2 350 356 349 292 232 222 223 223 216 212 222 217 212 193 203 201 202 209 206 208 215 214 218 218 223 202 198 200 197 201 204 208 211 216 219 223
351 350 344 15 14 9 12 13 5 5 12 9 6 1 357 358 350 355 336 344 317 237 223 219 212 212 215 215 209 205 214 203 206 208 208 215 212 213 217 223 224 211 202 197 206 204 212 212 214 217 224 226
348 349 349 14 8 9 14 8 10 14 8 11 6 1 357 356 357 352 337 343 334 315 249 219 210 214 208 212 209 209 220 209 213 213 219 217 218 214 215 220 219 218 213 202 204 208 213 215 212 217 218 227
345 350 351 14 12 12 10 8 15 13 11 11 3 4 2 1 356 359 344 351 321 327 302 238 212 215 210 215 205 206 216 214 212 218 224 223 224 227 222 222 224 218 218 211 211 208 217 217 212 220 217 221
339 343 0 15 14 15 11 11 15 16 12 6 3 3 2 1 358 4 351 345 333 334 328 256 216 216 217 221 212 203 210 213 217 224 225 226 223 226 224 230 227 220 219 219 215 211 218 215 216 222 220 222
344 346 3 19 14 14 14 17 13 19 14 9 6 2 1 358 0 358 356 353 344 349 357 346 269 211 211 222 215 206 201 214 222 226 224 223 219 222 224 231 232 230 229 224 217 211 212 216 214 215 220 222
349 346 354 19 15 12 14 15 15 11 10 11 11 3 356 360 1 355 352 352 351 350 4 11 9 2 351 21 313 228 206 218 227 229 226 220 222 223 226 228 233 235 234 230 224 216 208 215 218 214 219 225
348 344 350 16 18 15 17 16 15 15 13 6 1 9 3 359 358 356 354 351 1 358 6 13 5 357 344 8 43 25 328 272 243 227 225 222 215 221 225 225 229 225 236 235 235 228 219 216 217 221 223 228
352 348 355 10 19 22 20 21 18 17 11 10 11 4 360 359 358 360 355 354 356 7 5 8 3 353 350 14 42 43 48 44 26 360 305 232 208 215 222 223 232 227 225 237 239 232 227 217 217 221 223 229
353 353 359 9 16 19 19 21 19 14 14 16 12 7 8 359 357 2 356 359 353 4 8 6 0 354 350 359 28 43 38 32 22 14 11 351 293 219 215 229 230 233 227 226 234 236 231 227 223 226 224 226
358 1 7 12 16 18 20 20 20 16 21 17 11 12 7 5 6 3 357 357 353 6 4 4 359 357 354 360 18 34 37 25 17 16 9 8 355 329 270 259 247 242 238 233 229 230 227 225 234 234 234 236
3 7 9 12 10 21 19 15 16 17 19 15 15 9 9 8 9 6 3 0 353 6 5 358 359 359 1 5 14 23 30 26 17 11 3 4 10 8 20 17 353 326 275 237 234 235 240 227 217 222 234 243
5 4 1 10 16 16 15 13 15 16 12 13 8 8 12 12 11 8 8 6 356 1 0 359 360 6 4 5 11 18 20 19 18 9 4 357 5 14 7 8 358 1 321 223 245 231 243 249 229 241 227 244
3 5 2 360 6 7 15 13 19 16 10 8 7 9 10 12 10 10 9 4 2 3 8 357 0 7 4 2 6 10 13 16 20 12 7 3 8 1 11 4 5 4 1 19 329 280 208 215 212 214 214 230
9 0 350 4 5 13 20 25 18 25 14 6 11 9 13 12 7 8 10 8 3 6 7 3 359 1 1 5 7 6 9 11 16 13 5 4 9 358 4 6 4 9 16 345 313 256 219 262 281 66 61 60
11 13 355 1 14 16 37 23 12 18 11 11 14 10 8 12 7 4 7 6 5 3 4 6 5 2 7 0 9 7 6 4 7 5 4 5 5 1 11 11 355 8 3 16 359 4 2 316 350 4 47 333
9 10 2 350 16 35 33 31 21 15 16 11 9 5 9 6 4 3 7 4 5 3 0 4 5 6 6 0 7 11 10 7 354 354 353 5 6 9 7 5 358 352 5 6 32 7 344 350 23 37 320 320
17 20 16 8 17 15 13 16 15 14 3 355 2 1 348 359 4 1 5 8 3 360 359 4 2 5 8 6 7 12 7 0 352 354 352 3 360 3 2 354 7 360 358 354 23 15 28 355 340 330 318 358
18 26 28 31 31 33 22 21 17 4 360 356 353 354 357 355 357 3 8 7 7 2 357 4 2 5 6 6 6 10 1 3 353 349 351 356 10 0 349 2 14 9 359 352 21 1 354 349 319 321 325 347